| time (UTC) | temp C | wind direction | speed KPH | gust KPH | rain 1hr cm | rain 24hr cm | rain mn cm | humidity % | barometer mb |
| 20260508120108 | 3 | 0 | 0.0 | 6.4 | 0.00 | 0.00 | 0.00 | 89 | 1017.6 |
| 20260508114542 | 2 | 0 | 3.2 | 8.0 | 0.00 | 0.00 | 0.00 | 89 | 1017.5 |
| 20260508113049 | 1 | 208 | 1.6 | 4.8 | 0.00 | 0.00 | 0.00 | 89 | 1017.4 |
| 20260508111603 | 1 | 0 | 0.0 | 1.6 | 0.00 | 0.00 | 0.00 | 88 | 1017.4 |
| 20260508110037 | 0 | 0 | 0.0 | 1.6 | 0.00 | 0.00 | 0.00 | 88 | 1017.3 |
| 20260508104539 | 0 | 206 | 0.0 | 1.6 | 0.00 | 0.00 | 0.00 | 87 | 1017.1 |
| 20260508103039 | 0 | 0 | 0.0 | 3.2 | 0.00 | 0.00 | 0.00 | 87 | 1017.0 |
| 20260508101541 | 0 | 0 | 0.0 | 0.0 | 0.00 | 0.00 | 0.00 | 86 | 1016.9 |
| 20260508100039 | 0 | 220 | 0.0 | 3.2 | 0.00 | 0.00 | 0.00 | 86 | 1016.7 |
| 20260508094538 | 0 | 0 | 0.0 | 1.6 | 0.00 | 0.03 | 0.00 | 85 | 1016.6 |
| 20260508093044 | 0 | 0 | 0.0 | 0.0 | 0.00 | 0.03 | 0.00 | 85 | 1016.5 |
| 20260508091547 | 0 | 0 | 0.0 | 1.6 | 0.00 | 0.03 | 0.00 | 84 | 1016.5 |
| 20260508090045 | 0 | 0 | 0.0 | 3.2 | 0.00 | 0.03 | 0.00 | 84 | 1016.2 |
| 20260508084538 | 0 | 232 | 0.0 | 3.2 | 0.00 | 0.03 | 0.00 | 83 | 1016.2 |
| 20260508083053 | 0 | 0 | 0.0 | 0.0 | 0.00 | 0.03 | 0.00 | 82 | 1016.0 |
| 20260508081535 | 1 | 0 | 0.0 | 1.6 | 0.00 | 0.03 | 0.00 | 81 | 1016.0 |
| 20260508080039 | 1 | 0 | 0.0 | 0.0 | 0.00 | 0.03 | 0.00 | 80 | 1016.1 |
| 20260508074546 | 1 | 0 | 0.0 | 4.8 | 0.00 | 0.03 | 0.00 | 79 | 1016.1 |
| 20260508073037 | 1 | 0 | 0.0 | 3.2 | 0.00 | 0.03 | 0.00 | 78 | 1016.0 |
| 20260508071541 | 1 | 0 | 0.0 | 3.2 | 0.00 | 0.03 | 0.00 | 77 | 1016.1 |
| 20260508070039 | 2 | 0 | 0.0 | 4.8 | 0.00 | 0.03 | 0.00 | 76 | 1016.1 |
| 20260508064540 | 2 | 0 | 0.0 | 4.8 | 0.00 | 0.05 | 0.00 | 75 | 1016.0 |
| 20260508063038 | 3 | 226 | 1.6 | 4.8 | 0.00 | 0.05 | 0.00 | 74 | 1016.2 |
| 20260508061537 | 3 | 0 | 0.0 | 4.8 | 0.00 | 0.05 | 0.00 | 72 | 1016.2 |
| 20260508060034 | 4 | 0 | 0.0 | 0.0 | 0.00 | 0.05 | 0.00 | 70 | 1016.4 |
| 20260508054543 | 5 | 0 | 0.0 | 1.6 | 0.00 | 0.05 | 0.00 | 69 | 1016.3 |
| 20260508053046 | 5 | 0 | 0.0 | 4.8 | 0.00 | 0.05 | 0.00 | 64 | 1016.2 |
| 20260508051540 | 5 | 0 | 0.0 | 8.0 | 0.00 | 0.05 | 0.00 | 64 | 1016.0 |
| 20260508050038 | 5 | 301 | 1.6 | 6.4 | 0.00 | 0.05 | 0.00 | 64 | 1016.0 |
| 20260508044536 | 6 | 295 | 0.0 | 4.8 | 0.00 | 0.08 | 0.00 | 64 | 1015.7 |
| 20260508043043 | 6 | 0 | 0.0 | 11.3 | 0.00 | 0.08 | 0.00 | 64 | 1015.7 |
| 20260508041542 | 6 | 315 | 1.6 | 6.4 | 0.00 | 0.08 | 0.00 | 65 | 1015.7 |
| 20260508040040 | 6 | 286 | 1.6 | 6.4 | 0.00 | 0.08 | 0.00 | 66 | 1015.7 |
| 20260508034538 | 6 | 0 | 0.0 | 6.4 | 0.00 | 0.10 | 0.08 | 66 | 1015.6 |
| 20260508033038 | 7 | 239 | 1.6 | 11.3 | 0.00 | 0.10 | 0.08 | 65 | 1015.5 |
| 20260508031543 | 7 | 278 | 4.8 | 11.3 | 0.00 | 0.10 | 0.08 | 67 | 1015.5 |
| 20260508030045 | 7 | 273 | 4.8 | 9.7 | 0.00 | 0.10 | 0.08 | 67 | 1015.4 |
| 20260508024540 | 7 | 305 | 3.2 | 9.7 | 0.00 | 0.23 | 0.08 | 68 | 1015.2 |
| 20260508023037 | 7 | 289 | 1.6 | 9.7 | 0.00 | 0.23 | 0.08 | 69 | 1015.1 |
| 20260508021548 | 7 | 259 | 3.2 | 9.7 | 0.00 | 0.23 | 0.08 | 69 | 1014.9 |
| 20260508020035 | 7 | 276 | 4.8 | 14.5 | 0.00 | 0.23 | 0.08 | 69 | 1014.7 |
| 20260508014537 | 7 | 270 | 1.6 | 9.7 | 0.00 | 0.33 | 0.08 | 69 | 1014.6 |
| 20260508013043 | 7 | 297 | 3.2 | 9.7 | 0.00 | 0.33 | 0.08 | 68 | 1014.5 |
| 20260508011539 | 8 | 285 | 1.6 | 6.4 | 0.00 | 0.33 | 0.08 | 68 | 1014.2 |
| 20260508010038 | 8 | 255 | 1.6 | 8.0 | 0.00 | 0.33 | 0.08 | 67 | 1014.0 |
| 20260508004540 | 8 | 254 | 1.6 | 11.3 | 0.00 | 0.36 | 0.08 | 66 | 1014.0 |
| 20260508003038 | 8 | 287 | 3.2 | 11.3 | 0.00 | 0.36 | 0.08 | 66 | 1013.8 |
| 20260508001539 | 9 | 257 | 8.0 | 14.5 | 0.00 | 0.36 | 0.08 | 64 | 1013.6 |
| 20260508000036 | 10 | 287 | 4.8 | 14.5 | 0.00 | 0.36 | 0.08 | 64 | 1013.5 |
| 20260507234537 | 10 | 267 | 3.2 | 16.1 | 0.00 | 0.41 | 0.08 | 63 | 1013.5 |
| 20260507233038 | 10 | 258 | 11.3 | 20.9 | 0.00 | 0.41 | 0.08 | 62 | 1013.4 |
| 20260507231551 | 11 | 306 | 11.3 | 25.7 | 0.00 | 0.41 | 0.08 | 61 | 1013.2 |
| 20260507230037 | 10 | 297 | 12.9 | 20.9 | 0.00 | 0.41 | 0.08 | 61 | 1013.3 |
| 20260507224540 | 10 | 272 | 9.7 | 17.7 | 0.00 | 0.41 | 0.08 | 65 | 1013.2 |
| 20260507223038 | 10 | 318 | 9.7 | 22.5 | 0.00 | 0.41 | 0.08 | 64 | 1013.0 |
| 20260507221537 | 11 | 321 | 12.9 | 27.4 | 0.00 | 0.41 | 0.08 | 64 | 1012.8 |
| 20260507220038 | 11 | 314 | 8.0 | 17.7 | 0.00 | 0.41 | 0.08 | 63 | 1012.6 |
| 20260507214545 | 11 | 286 | 14.5 | 24.1 | 0.00 | 0.43 | 0.08 | 63 | 1012.5 |
| 20260507213035 | 11 | 272 | 12.9 | 20.9 | 0.00 | 0.43 | 0.08 | 66 | 1012.6 |
| 20260507211538 | 11 | 293 | 8.0 | 22.5 | 0.00 | 0.43 | 0.08 | 67 | 1012.3 |
| 20260507210049 | 10 | 304 | 11.3 | 22.5 | 0.00 | 0.43 | 0.08 | 68 | 1012.3 |
| 20260507204538 | 11 | 283 | 9.7 | 22.5 | 0.00 | 0.46 | 0.08 | 68 | 1012.2 |
| 20260507203047 | 10 | 285 | 11.3 | 24.1 | 0.00 | 0.46 | 0.08 | 68 | 1012.3 |
| 20260507201543 | 10 | 263 | 6.4 | 17.7 | 0.00 | 0.46 | 0.08 | 68 | 1012.3 |
| 20260507200037 | 10 | 314 | 9.7 | 19.3 | 0.00 | 0.46 | 0.08 | 70 | 1012.5 |
| 20260507194608 | 10 | 275 | 9.7 | 20.9 | 0.00 | 0.46 | 0.08 | 71 | 1012.8 |
| 20260507193038 | 10 | 236 | 9.7 | 20.9 | 0.00 | 0.46 | 0.08 | 71 | 1012.6 |
| 20260507191542 | 10 | 278 | 8.0 | 24.1 | 0.00 | 0.46 | 0.08 | 71 | 1012.9 |
| 20260507190037 | 10 | 303 | 9.7 | 22.5 | 0.00 | 0.46 | 0.08 | 71 | 1012.9 |
| 20260507184540 | 10 | 267 | 8.0 | 22.5 | 0.00 | 0.46 | 0.08 | 70 | 1013.2 |
| 20260507183041 | 10 | 263 | 9.7 | 24.1 | 0.00 | 0.46 | 0.08 | 69 | 1013.2 |
| 20260507181539 | 10 | 313 | 9.7 | 29.0 | 0.00 | 0.46 | 0.08 | 68 | 1013.0 |
| 20260507180040 | 11 | 216 | 11.3 | 20.9 | 0.00 | 0.46 | 0.08 | 66 | 1012.9 |
| 20260507174543 | 10 | 5 | 9.7 | 20.9 | 0.00 | 0.46 | 0.08 | 69 | 1013.2 |
| 20260507173039 | 9 | 293 | 9.7 | 19.3 | 0.00 | 0.46 | 0.08 | 68 | 1013.3 |
| 20260507171547 | 10 | 318 | 8.0 | 17.7 | 0.00 | 0.46 | 0.08 | 68 | 1013.3 |
| 20260507170043 | 9 | 265 | 8.0 | 16.1 | 0.00 | 0.46 | 0.08 | 70 | 1013.4 |
| 20260507164538 | 9 | 271 | 8.0 | 16.1 | 0.00 | 0.53 | 0.08 | 72 | 1013.5 |
| 20260507163037 | 9 | 292 | 14.5 | 22.5 | 0.00 | 0.53 | 0.08 | 71 | 1013.5 |
| 20260507161540 | 10 | 42 | 1.6 | 14.5 | 0.00 | 0.53 | 0.08 | 74 | 1013.6 |
| 20260507160037 | 8 | 351 | 3.2 | 14.5 | 0.00 | 0.53 | 0.08 | 78 | 1013.7 |
| 20260507154537 | 8 | 321 | 3.2 | 14.5 | 0.00 | 0.61 | 0.08 | 77 | 1013.6 |
| 20260507153043 | 8 | 342 | 6.4 | 16.1 | 0.00 | 0.61 | 0.08 | 77 | 1013.8 |
| 20260507151539 | 8 | 312 | 1.6 | 9.7 | 0.00 | 0.61 | 0.08 | 79 | 1013.8 |
| 20260507150038 | 7 | 335 | 9.7 | 19.3 | 0.00 | 0.61 | 0.08 | 78 | 1013.9 |
| 20260507144537 | 7 | 301 | 6.4 | 16.1 | 0.00 | 0.66 | 0.08 | 81 | 1013.9 |
| 20260507143038 | 7 | 44 | 6.4 | 17.7 | 0.00 | 0.66 | 0.08 | 87 | 1013.8 |
| 20260507141544 | 6 | 33 | 1.6 | 14.5 | 0.00 | 0.66 | 0.08 | 92 | 1014.0 |
| 20260507140040 | 6 | 331 | 3.2 | 14.5 | 0.00 | 0.66 | 0.08 | 92 | 1014.0 |
| 20260507134539 | 6 | 10 | 4.8 | 14.5 | 0.00 | 0.69 | 0.08 | 93 | 1014.0 |
| 20260507133038 | 6 | 0 | 3.2 | 11.3 | 0.00 | 0.69 | 0.08 | 93 | 1014.3 |
| 20260507131605 | 6 | 315 | 1.6 | 6.4 | 0.00 | 0.69 | 0.08 | 93 | 1014.2 |
| 20260507130040 | 6 | 66 | 1.6 | 6.4 | 0.00 | 0.69 | 0.08 | 93 | 1014.4 |
| 20260507124544 | 6 | 321 | 1.6 | 9.7 | 0.00 | 1.04 | 0.08 | 94 | 1014.4 |
| 20260507123043 | 5 | 300 | 1.6 | 9.7 | 0.00 | 1.04 | 0.08 | 94 | 1014.6 |